#datetime,building,power
2023-10-28T00:00:00,axn,32.91
2023-10-28T00:01:00,axn,32.37
2023-10-28T00:02:00,axn,34.17
2023-10-28T00:03:00,axn,35.14
2023-10-28T00:04:00,axn,33.97
2023-10-28T00:05:00,axn,34.70
2023-10-28T00:06:00,axn,34.35
2023-10-28T00:07:00,axn,33.77
2023-10-28T00:08:00,axn,33.87
2023-10-28T00:09:00,axn,32.03
2023-10-28T00:10:00,axn,31.75
2023-10-28T00:11:00,axn,31.87
2023-10-28T00:12:00,axn,31.87
2023-10-28T00:13:00,axn,31.75
2023-10-28T00:14:00,axn,31.75
2023-10-28T00:15:00,axn,32.14
2023-10-28T00:16:00,axn,31.82
2023-10-28T00:17:00,axn,32.10
2023-10-28T00:18:00,axn,32.19
2023-10-28T00:19:00,axn,31.88
2023-10-28T00:20:00,axn,32.49
2023-10-28T00:21:00,axn,32.23
2023-10-28T00:22:00,axn,31.73
2023-10-28T00:23:00,axn,31.79
2023-10-28T00:24:00,axn,31.99
2023-10-28T00:25:00,axn,31.84
2023-10-28T00:26:00,axn,31.71
2023-10-28T00:27:00,axn,31.53
2023-10-28T00:28:00,axn,31.67
2023-10-28T00:29:00,axn,32.45
2023-10-28T00:30:00,axn,42.62
2023-10-28T00:31:00,axn,42.80
2023-10-28T00:32:00,axn,42.85
2023-10-28T00:33:00,axn,43.24
2023-10-28T00:34:00,axn,43.35
2023-10-28T00:35:00,axn,33.16
2023-10-28T00:36:00,axn,33.28
2023-10-28T00:37:00,axn,32.09
2023-10-28T00:38:00,axn,31.80
2023-10-28T00:39:00,axn,31.62
2023-10-28T00:40:00,axn,36.09
2023-10-28T00:41:00,axn,36.76
2023-10-28T00:42:00,axn,36.60
2023-10-28T00:43:00,axn,32.05
2023-10-28T00:44:00,axn,32.23
2023-10-28T00:45:00,axn,31.81
2023-10-28T00:46:00,axn,31.54
2023-10-28T00:47:00,axn,31.86
2023-10-28T00:48:00,axn,31.94
2023-10-28T00:49:00,axn,31.97
2023-10-28T00:50:00,axn,31.56
2023-10-28T00:51:00,axn,31.12
2023-10-28T00:52:00,axn,31.61
2023-10-28T00:53:00,axn,31.77
2023-10-28T00:54:00,axn,34.81
2023-10-28T00:55:00,axn,34.90
2023-10-28T00:56:00,axn,32.10
2023-10-28T00:57:00,axn,32.06
2023-10-28T00:58:00,axn,31.74
2023-10-28T00:59:00,axn,32.00
2023-10-28T01:00:00,axn,31.91
2023-10-28T01:01:00,axn,31.89
2023-10-28T01:02:00,axn,31.51
2023-10-28T01:03:00,axn,31.51
2023-10-28T01:04:00,axn,31.40
2023-10-28T01:05:00,axn,31.65
2023-10-28T01:06:00,axn,31.97
2023-10-28T01:07:00,axn,31.81
2023-10-28T01:08:00,axn,32.12
2023-10-28T01:09:00,axn,32.06
2023-10-28T01:10:00,axn,31.95
2023-10-28T01:11:00,axn,31.94
2023-10-28T01:12:00,axn,32.22
2023-10-28T01:13:00,axn,32.41
2023-10-28T01:14:00,axn,31.91
2023-10-28T01:15:00,axn,31.78
2023-10-28T01:16:00,axn,31.80
2023-10-28T01:17:00,axn,32.17
2023-10-28T01:18:00,axn,32.42
2023-10-28T01:19:00,axn,32.71
2023-10-28T01:20:00,axn,34.88
2023-10-28T01:21:00,axn,34.86
2023-10-28T01:22:00,axn,34.51
2023-10-28T01:23:00,axn,34.99
2023-10-28T01:24:00,axn,34.92
2023-10-28T01:25:00,axn,34.43
2023-10-28T01:26:00,axn,33.36
2023-10-28T01:27:00,axn,32.16
2023-10-28T01:28:00,axn,32.06
2023-10-28T01:29:00,axn,32.48
2023-10-28T01:30:00,axn,32.66
2023-10-28T01:31:00,axn,32.70
2023-10-28T01:32:00,axn,32.70
2023-10-28T01:33:00,axn,33.06
2023-10-28T01:34:00,axn,32.74
2023-10-28T01:35:00,axn,32.95
2023-10-28T01:36:00,axn,32.74
2023-10-28T01:37:00,axn,32.58
2023-10-28T01:38:00,axn,32.23
2023-10-28T01:39:00,axn,32.31
2023-10-28T01:40:00,axn,32.36
2023-10-28T01:41:00,axn,33.01
2023-10-28T01:42:00,axn,33.31
2023-10-28T01:43:00,axn,32.85
2023-10-28T01:44:00,axn,33.05
2023-10-28T01:45:00,axn,35.88
2023-10-28T01:46:00,axn,36.11
2023-10-28T01:47:00,axn,35.49
2023-10-28T01:48:00,axn,35.36
2023-10-28T01:49:00,axn,32.62
2023-10-28T01:50:00,axn,32.23
2023-10-28T01:51:00,axn,32.14
2023-10-28T01:52:00,axn,31.60
2023-10-28T01:53:00,axn,32.02
2023-10-28T01:54:00,axn,32.71
2023-10-28T01:55:00,axn,32.52
2023-10-28T01:56:00,axn,32.18
2023-10-28T01:57:00,axn,32.05
2023-10-28T01:58:00,axn,31.84
2023-10-28T01:59:00,axn,31.93
2023-10-28T02:00:00,axn,32.10
2023-10-28T02:01:00,axn,31.86
2023-10-28T02:02:00,axn,31.47
2023-10-28T02:03:00,axn,31.35
2023-10-28T02:04:00,axn,31.27
2023-10-28T02:05:00,axn,31.75
2023-10-28T02:06:00,axn,31.81
2023-10-28T02:07:00,axn,31.77
2023-10-28T02:08:00,axn,31.81
2023-10-28T02:09:00,axn,31.82
2023-10-28T02:10:00,axn,31.32
2023-10-28T02:11:00,axn,31.47
2023-10-28T02:12:00,axn,31.41
2023-10-28T02:13:00,axn,31.59
2023-10-28T02:14:00,axn,33.28
2023-10-28T02:15:00,axn,33.19
2023-10-28T02:16:00,axn,33.50
2023-10-28T02:17:00,axn,32.76
2023-10-28T02:18:00,axn,33.05
2023-10-28T02:19:00,axn,38.88
2023-10-28T02:20:00,axn,39.21
2023-10-28T02:21:00,axn,38.63
2023-10-28T02:22:00,axn,32.80
2023-10-28T02:23:00,axn,32.87
2023-10-28T02:24:00,axn,33.01
2023-10-28T02:25:00,axn,32.76
2023-10-28T02:26:00,axn,32.53
2023-10-28T02:27:00,axn,32.68
2023-10-28T02:28:00,axn,32.65
2023-10-28T02:29:00,axn,33.23
2023-10-28T02:30:00,axn,33.11
2023-10-28T02:31:00,axn,33.22
2023-10-28T02:32:00,axn,33.70
2023-10-28T02:33:00,axn,33.32
2023-10-28T02:34:00,axn,32.77
2023-10-28T02:35:00,axn,32.68
2023-10-28T02:36:00,axn,32.86
2023-10-28T02:37:00,axn,32.62
2023-10-28T02:38:00,axn,32.47
2023-10-28T02:39:00,axn,32.46
2023-10-28T02:40:00,axn,32.57
2023-10-28T02:41:00,axn,32.92
2023-10-28T02:42:00,axn,32.95
2023-10-28T02:43:00,axn,33.12
2023-10-28T02:44:00,axn,33.20
2023-10-28T02:45:00,axn,33.02
2023-10-28T02:46:00,axn,32.91
2023-10-28T02:47:00,axn,33.19
2023-10-28T02:48:00,axn,33.03
2023-10-28T02:49:00,axn,32.77
2023-10-28T02:50:00,axn,32.70
2023-10-28T02:51:00,axn,32.47
2023-10-28T02:52:00,axn,32.66
2023-10-28T02:53:00,axn,32.83
2023-10-28T02:54:00,axn,33.69
2023-10-28T02:55:00,axn,33.50
2023-10-28T02:56:00,axn,33.61
2023-10-28T02:57:00,axn,33.56
2023-10-28T02:58:00,axn,33.35
2023-10-28T02:59:00,axn,33.09
2023-10-28T03:00:00,axn,33.00
2023-10-28T03:01:00,axn,32.84
2023-10-28T03:02:00,axn,33.06
2023-10-28T03:03:00,axn,32.76
2023-10-28T03:04:00,axn,32.81
2023-10-28T03:05:00,axn,33.07
2023-10-28T03:06:00,axn,27.94
2023-10-28T03:07:00,axn,27.77
2023-10-28T03:08:00,axn,27.91
2023-10-28T03:09:00,axn,27.59
2023-10-28T03:10:00,axn,28.07
2023-10-28T03:11:00,axn,27.59
2023-10-28T03:12:00,axn,27.65
2023-10-28T03:13:00,axn,27.56
2023-10-28T03:14:00,axn,27.67
2023-10-28T03:15:00,axn,27.69
2023-10-28T03:16:00,axn,27.67
2023-10-28T03:17:00,axn,27.71
2023-10-28T03:18:00,axn,28.23
2023-10-28T03:19:00,axn,28.12
2023-10-28T03:20:00,axn,28.08
2023-10-28T03:21:00,axn,27.73
2023-10-28T03:22:00,axn,27.69
2023-10-28T03:23:00,axn,27.66
2023-10-28T03:24:00,axn,27.75
2023-10-28T03:25:00,axn,27.60
2023-10-28T03:26:00,axn,27.99
2023-10-28T03:27:00,axn,27.94
2023-10-28T03:28:00,axn,28.57
2023-10-28T03:29:00,axn,27.86
2023-10-28T03:30:00,axn,27.99
2023-10-28T03:31:00,axn,27.78
2023-10-28T03:32:00,axn,27.82
2023-10-28T03:33:00,axn,27.97
2023-10-28T03:34:00,axn,27.86
2023-10-28T03:35:00,axn,27.80
2023-10-28T03:36:00,axn,27.80
2023-10-28T03:37:00,axn,27.81
2023-10-28T03:38:00,axn,27.89
2023-10-28T03:39:00,axn,27.87
2023-10-28T03:40:00,axn,27.94
2023-10-28T03:41:00,axn,27.86
2023-10-28T03:42:00,axn,28.58
2023-10-28T03:43:00,axn,27.85
2023-10-28T03:44:00,axn,27.67
2023-10-28T03:45:00,axn,27.61
2023-10-28T03:46:00,axn,27.46
2023-10-28T03:47:00,axn,27.64
2023-10-28T03:48:00,axn,27.59
2023-10-28T03:49:00,axn,27.76
2023-10-28T03:50:00,axn,27.68
2023-10-28T03:51:00,axn,27.56
2023-10-28T03:52:00,axn,27.79
2023-10-28T03:53:00,axn,27.58
2023-10-28T03:54:00,axn,27.45
2023-10-28T03:55:00,axn,30.49
2023-10-28T03:56:00,axn,30.45
2023-10-28T03:57:00,axn,27.64
2023-10-28T03:58:00,axn,27.57
2023-10-28T03:59:00,axn,27.55
2023-10-28T04:00:00,axn,27.66
2023-10-28T04:01:00,axn,27.71
2023-10-28T04:02:00,axn,27.74
2023-10-28T04:03:00,axn,27.85
2023-10-28T04:04:00,axn,27.88
2023-10-28T04:05:00,axn,28.08
2023-10-28T04:06:00,axn,27.73
2023-10-28T04:07:00,axn,27.84
2023-10-28T04:08:00,axn,27.82
2023-10-28T04:09:00,axn,27.86
2023-10-28T04:10:00,axn,28.06
2023-10-28T04:11:00,axn,28.03
2023-10-28T04:12:00,axn,28.03
2023-10-28T04:13:00,axn,27.95
2023-10-28T04:14:00,axn,28.01
2023-10-28T04:15:00,axn,28.31
2023-10-28T04:16:00,axn,28.10
2023-10-28T04:17:00,axn,28.15
2023-10-28T04:18:00,axn,28.33
2023-10-28T04:19:00,axn,27.83
2023-10-28T04:20:00,axn,27.95
2023-10-28T04:21:00,axn,27.77
2023-10-28T04:22:00,axn,27.72
2023-10-28T04:23:00,axn,27.77
2023-10-28T04:24:00,axn,27.84
2023-10-28T04:25:00,axn,27.98
2023-10-28T04:26:00,axn,27.92
2023-10-28T04:27:00,axn,27.86
2023-10-28T04:28:00,axn,28.26
2023-10-28T04:29:00,axn,27.85
2023-10-28T04:30:00,axn,27.82
2023-10-28T04:31:00,axn,27.91
2023-10-28T04:32:00,axn,28.39
2023-10-28T04:33:00,axn,27.88
2023-10-28T04:34:00,axn,28.35
2023-10-28T04:35:00,axn,27.61
2023-10-28T04:36:00,axn,27.38
2023-10-28T04:37:00,axn,27.39
2023-10-28T04:38:00,axn,27.60
2023-10-28T04:39:00,axn,27.32
2023-10-28T04:40:00,axn,27.49
2023-10-28T04:41:00,axn,27.61
2023-10-28T04:42:00,axn,27.71
2023-10-28T04:43:00,axn,27.57
2023-10-28T04:44:00,axn,27.64
2023-10-28T04:45:00,axn,27.82
2023-10-28T04:46:00,axn,27.72
2023-10-28T04:47:00,axn,27.53
2023-10-28T04:48:00,axn,27.82
2023-10-28T04:49:00,axn,27.50
2023-10-28T04:50:00,axn,27.74
2023-10-28T04:51:00,axn,27.70
2023-10-28T04:52:00,axn,27.64
2023-10-28T04:53:00,axn,27.64
2023-10-28T04:54:00,axn,27.65
2023-10-28T04:55:00,axn,27.62
2023-10-28T04:56:00,axn,27.73
2023-10-28T04:57:00,axn,27.64
2023-10-28T04:58:00,axn,27.75
2023-10-28T04:59:00,axn,27.75
2023-10-28T05:00:00,axn,27.68
2023-10-28T05:01:00,axn,25.76
2023-10-28T05:02:00,axn,25.73
2023-10-28T05:03:00,axn,26.01
2023-10-28T05:04:00,axn,25.97
2023-10-28T05:05:00,axn,26.12
2023-10-28T05:06:00,axn,26.16
2023-10-28T05:07:00,axn,25.97
2023-10-28T05:08:00,axn,26.24
2023-10-28T05:09:00,axn,25.96
2023-10-28T05:10:00,axn,26.41
2023-10-28T05:11:00,axn,28.86
2023-10-28T05:12:00,axn,29.00
2023-10-28T05:13:00,axn,28.45
2023-10-28T05:14:00,axn,25.81
2023-10-28T05:15:00,axn,25.64
2023-10-28T05:16:00,axn,25.54
2023-10-28T05:17:00,axn,25.55
2023-10-28T05:18:00,axn,25.44
2023-10-28T05:19:00,axn,25.39
2023-10-28T05:20:00,axn,25.44
2023-10-28T05:21:00,axn,25.43
2023-10-28T05:22:00,axn,25.55
2023-10-28T05:23:00,axn,25.43
2023-10-28T05:24:00,axn,25.40
2023-10-28T05:25:00,axn,25.10
2023-10-28T05:26:00,axn,25.27
2023-10-28T05:27:00,axn,25.19
2023-10-28T05:28:00,axn,25.64
2023-10-28T05:29:00,axn,25.66
2023-10-28T05:30:00,axn,25.49
2023-10-28T05:31:00,axn,26.24
2023-10-28T05:32:00,axn,25.88
2023-10-28T05:33:00,axn,25.95
2023-10-28T05:34:00,axn,26.33
2023-10-28T05:35:00,axn,25.80
2023-10-28T05:36:00,axn,25.70
2023-10-28T05:37:00,axn,26.06
2023-10-28T05:38:00,axn,25.95
2023-10-28T05:39:00,axn,25.72
2023-10-28T05:40:00,axn,25.73
2023-10-28T05:41:00,axn,25.80
2023-10-28T05:42:00,axn,25.47
2023-10-28T05:43:00,axn,25.74
2023-10-28T05:44:00,axn,26.63
2023-10-28T05:45:00,axn,26.49
2023-10-28T05:46:00,axn,26.47
2023-10-28T05:47:00,axn,26.58
2023-10-28T05:48:00,axn,26.15
2023-10-28T05:49:00,axn,26.23
2023-10-28T05:50:00,axn,26.17
2023-10-28T05:51:00,axn,41.05
2023-10-28T05:52:00,axn,40.49
2023-10-28T05:53:00,axn,40.20
2023-10-28T05:54:00,axn,40.32
2023-10-28T05:55:00,axn,40.03
2023-10-28T05:56:00,axn,26.04
2023-10-28T05:57:00,axn,26.04
2023-10-28T05:58:00,axn,26.06
2023-10-28T05:59:00,axn,26.08
2023-10-28T06:00:00,axn,26.12
2023-10-28T06:01:00,axn,26.10
2023-10-28T06:02:00,axn,26.14
2023-10-28T06:03:00,axn,26.13
2023-10-28T06:04:00,axn,26.90
2023-10-28T06:05:00,axn,26.72
2023-10-28T06:06:00,axn,26.74
2023-10-28T06:07:00,axn,27.14
2023-10-28T06:08:00,axn,26.78
2023-10-28T06:09:00,axn,27.05
2023-10-28T06:10:00,axn,26.82
2023-10-28T06:11:00,axn,26.71
2023-10-28T06:12:00,axn,26.52
2023-10-28T06:13:00,axn,26.51
2023-10-28T06:14:00,axn,26.46
2023-10-28T06:15:00,axn,26.62
2023-10-28T06:16:00,axn,26.53
2023-10-28T06:17:00,axn,26.68
2023-10-28T06:18:00,axn,25.97
2023-10-28T06:19:00,axn,26.02
2023-10-28T06:20:00,axn,25.87
2023-10-28T06:21:00,axn,26.33
2023-10-28T06:22:00,axn,26.22
2023-10-28T06:23:00,axn,25.91
2023-10-28T06:24:00,axn,25.90
2023-10-28T06:25:00,axn,26.00
2023-10-28T06:26:00,axn,26.14
2023-10-28T06:27:00,axn,25.84
2023-10-28T06:28:00,axn,26.03
2023-10-28T06:29:00,axn,25.96
2023-10-28T06:30:00,axn,25.67
2023-10-28T06:31:00,axn,25.85
2023-10-28T06:32:00,axn,25.50
2023-10-28T06:33:00,axn,25.62
2023-10-28T06:34:00,axn,25.94
2023-10-28T06:35:00,axn,26.07
2023-10-28T06:36:00,axn,25.85
2023-10-28T06:37:00,axn,25.88
2023-10-28T06:38:00,axn,26.07
2023-10-28T06:39:00,axn,25.98
2023-10-28T06:40:00,axn,25.36
2023-10-28T06:41:00,axn,25.20
2023-10-28T06:42:00,axn,25.68
2023-10-28T06:43:00,axn,25.18
2023-10-28T06:44:00,axn,24.99
2023-10-28T06:45:00,axn,25.14
2023-10-28T06:46:00,axn,25.95
2023-10-28T06:47:00,axn,25.19
2023-10-28T06:48:00,axn,25.19
2023-10-28T06:49:00,axn,25.21
2023-10-28T06:50:00,axn,25.51
2023-10-28T06:51:00,axn,24.99
2023-10-28T06:52:00,axn,25.00
2023-10-28T06:53:00,axn,25.05
2023-10-28T06:54:00,axn,25.06
2023-10-28T06:55:00,axn,24.97
2023-10-28T06:56:00,axn,35.27
2023-10-28T06:57:00,axn,35.20
2023-10-28T06:58:00,axn,35.08
2023-10-28T06:59:00,axn,34.62
2023-10-28T07:00:00,axn,24.60
2023-10-28T07:01:00,axn,27.51
2023-10-28T07:02:00,axn,30.49
2023-10-28T07:03:00,axn,32.08
2023-10-28T07:04:00,axn,31.34
2023-10-28T07:05:00,axn,31.43
2023-10-28T07:06:00,axn,31.75
2023-10-28T07:07:00,axn,32.15
2023-10-28T07:08:00,axn,31.98
2023-10-28T07:09:00,axn,32.04
2023-10-28T07:10:00,axn,31.97
2023-10-28T07:11:00,axn,32.03
2023-10-28T07:12:00,axn,32.01
2023-10-28T07:13:00,axn,31.94
2023-10-28T07:14:00,axn,32.01
2023-10-28T07:15:00,axn,31.92
2023-10-28T07:16:00,axn,31.78
2023-10-28T07:17:00,axn,31.84
2023-10-28T07:18:00,axn,32.33
2023-10-28T07:19:00,axn,31.69
2023-10-28T07:20:00,axn,32.37
2023-10-28T07:21:00,axn,32.57
2023-10-28T07:22:00,axn,32.32
2023-10-28T07:23:00,axn,32.06
2023-10-28T07:24:00,axn,32.57
2023-10-28T07:25:00,axn,32.68
2023-10-28T07:26:00,axn,33.26
2023-10-28T07:27:00,axn,33.45
2023-10-28T07:28:00,axn,35.65
2023-10-28T07:29:00,axn,35.63
2023-10-28T07:30:00,axn,32.86
2023-10-28T07:31:00,axn,33.14
2023-10-28T07:32:00,axn,33.11
2023-10-28T07:33:00,axn,33.12
2023-10-28T07:34:00,axn,32.92
2023-10-28T07:35:00,axn,33.13
2023-10-28T07:36:00,axn,33.00
2023-10-28T07:37:00,axn,32.76
2023-10-28T07:38:00,axn,33.08
2023-10-28T07:39:00,axn,33.29
2023-10-28T07:40:00,axn,33.17
2023-10-28T07:41:00,axn,33.74
2023-10-28T07:42:00,axn,33.37
2023-10-28T07:43:00,axn,33.95
2023-10-28T07:44:00,axn,33.72
2023-10-28T07:45:00,axn,33.71
2023-10-28T07:46:00,axn,33.77
2023-10-28T07:47:00,axn,33.48
2023-10-28T07:48:00,axn,33.28
2023-10-28T07:49:00,axn,33.22
2023-10-28T07:50:00,axn,33.25
2023-10-28T07:51:00,axn,38.30
2023-10-28T07:52:00,axn,33.32
2023-10-28T07:53:00,axn,33.38
2023-10-28T07:54:00,axn,33.45
2023-10-28T07:55:00,axn,33.02
2023-10-28T07:56:00,axn,33.09
2023-10-28T07:57:00,axn,33.29
2023-10-28T07:58:00,axn,33.09
2023-10-28T07:59:00,axn,33.22
2023-10-28T08:00:00,axn,33.42
2023-10-28T08:01:00,axn,34.95
2023-10-28T08:02:00,axn,35.34
2023-10-28T08:03:00,axn,35.15
2023-10-28T08:04:00,axn,34.86
2023-10-28T08:05:00,axn,35.05
2023-10-28T08:06:00,axn,35.25
2023-10-28T08:07:00,axn,34.89
2023-10-28T08:08:00,axn,34.59
2023-10-28T08:09:00,axn,34.58
2023-10-28T08:10:00,axn,34.62
2023-10-28T08:11:00,axn,34.70
2023-10-28T08:12:00,axn,34.93
2023-10-28T08:13:00,axn,34.51
2023-10-28T08:14:00,axn,34.81
2023-10-28T08:15:00,axn,34.58
2023-10-28T08:16:00,axn,34.29
2023-10-28T08:17:00,axn,34.52
2023-10-28T08:18:00,axn,34.68
2023-10-28T08:19:00,axn,34.54
2023-10-28T08:20:00,axn,34.28
2023-10-28T08:21:00,axn,34.45
2023-10-28T08:22:00,axn,34.09
2023-10-28T08:23:00,axn,34.15
2023-10-28T08:24:00,axn,38.82
2023-10-28T08:25:00,axn,38.88
2023-10-28T08:26:00,axn,39.46
2023-10-28T08:27:00,axn,38.96
2023-10-28T08:28:00,axn,34.31
2023-10-28T08:29:00,axn,34.78
2023-10-28T08:30:00,axn,34.13
2023-10-28T08:31:00,axn,34.00
2023-10-28T08:32:00,axn,34.14
2023-10-28T08:33:00,axn,34.32
2023-10-28T08:34:00,axn,33.82
2023-10-28T08:35:00,axn,33.81
2023-10-28T08:36:00,axn,34.18
2023-10-28T08:37:00,axn,36.88
2023-10-28T08:38:00,axn,36.86
2023-10-28T08:39:00,axn,36.74
2023-10-28T08:40:00,axn,36.65
2023-10-28T08:41:00,axn,33.88
2023-10-28T08:42:00,axn,34.19
2023-10-28T08:43:00,axn,34.64
2023-10-28T08:44:00,axn,34.26
2023-10-28T08:45:00,axn,34.66
2023-10-28T08:46:00,axn,50.41
2023-10-28T08:47:00,axn,34.99
2023-10-28T08:48:00,axn,35.21
2023-10-28T08:49:00,axn,34.99
2023-10-28T08:50:00,axn,34.94
2023-10-28T08:51:00,axn,35.18
2023-10-28T08:52:00,axn,35.43
2023-10-28T08:53:00,axn,35.34
2023-10-28T08:54:00,axn,35.38
2023-10-28T08:55:00,axn,35.42
2023-10-28T08:56:00,axn,35.50
2023-10-28T08:57:00,axn,35.98
2023-10-28T08:58:00,axn,35.64
2023-10-28T08:59:00,axn,35.89
2023-10-28T09:00:00,axn,35.87
2023-10-28T09:01:00,axn,36.49
2023-10-28T09:02:00,axn,36.40
2023-10-28T09:03:00,axn,36.31
2023-10-28T09:04:00,axn,35.82
2023-10-28T09:05:00,axn,35.90
2023-10-28T09:06:00,axn,36.21
2023-10-28T09:07:00,axn,36.25
2023-10-28T09:08:00,axn,36.38
2023-10-28T09:09:00,axn,36.97
2023-10-28T09:10:00,axn,36.44
2023-10-28T09:11:00,axn,36.36
2023-10-28T09:12:00,axn,36.59
2023-10-28T09:13:00,axn,36.70
2023-10-28T09:14:00,axn,36.61
2023-10-28T09:15:00,axn,36.44
2023-10-28T09:16:00,axn,36.83
2023-10-28T09:17:00,axn,36.34
2023-10-28T09:18:00,axn,36.66
2023-10-28T09:19:00,axn,36.77
2023-10-28T09:20:00,axn,37.28
2023-10-28T09:21:00,axn,37.08
2023-10-28T09:22:00,axn,36.75
2023-10-28T09:23:00,axn,36.97
2023-10-28T09:24:00,axn,36.69
2023-10-28T09:25:00,axn,36.70
2023-10-28T09:26:00,axn,36.84
2023-10-28T09:27:00,axn,36.24
2023-10-28T09:28:00,axn,35.98
2023-10-28T09:29:00,axn,35.71
2023-10-28T09:30:00,axn,36.08
2023-10-28T09:31:00,axn,52.46
2023-10-28T09:32:00,axn,36.63
2023-10-28T09:33:00,axn,36.31
2023-10-28T09:34:00,axn,36.61
2023-10-28T09:35:00,axn,36.16
2023-10-28T09:36:00,axn,36.03
2023-10-28T09:37:00,axn,35.80
2023-10-28T09:38:00,axn,35.92
2023-10-28T09:39:00,axn,35.92
2023-10-28T09:40:00,axn,35.84
2023-10-28T09:41:00,axn,35.92
2023-10-28T09:42:00,axn,36.36
2023-10-28T09:43:00,axn,36.64
2023-10-28T09:44:00,axn,36.37
2023-10-28T09:45:00,axn,36.13
2023-10-28T09:46:00,axn,36.20
2023-10-28T09:47:00,axn,36.21
2023-10-28T09:48:00,axn,36.38
2023-10-28T09:49:00,axn,36.70
2023-10-28T09:50:00,axn,36.48
2023-10-28T09:51:00,axn,35.69
2023-10-28T09:52:00,axn,36.23
2023-10-28T09:53:00,axn,35.69
2023-10-28T09:54:00,axn,35.78
2023-10-28T09:55:00,axn,35.66
2023-10-28T09:56:00,axn,35.75
2023-10-28T09:57:00,axn,35.68
2023-10-28T09:58:00,axn,35.94
2023-10-28T09:59:00,axn,34.68
2023-10-28T10:00:00,axn,34.88
2023-10-28T10:01:00,axn,34.77
2023-10-28T10:02:00,axn,34.64
2023-10-28T10:03:00,axn,34.97
2023-10-28T10:04:00,axn,34.30
2023-10-28T10:05:00,axn,34.95
2023-10-28T10:06:00,axn,35.07
2023-10-28T10:07:00,axn,34.91
2023-10-28T10:08:00,axn,34.90
2023-10-28T10:09:00,axn,34.95
2023-10-28T10:10:00,axn,35.10
2023-10-28T10:11:00,axn,34.59
2023-10-28T10:12:00,axn,34.50
2023-10-28T10:13:00,axn,34.70
2023-10-28T10:14:00,axn,34.40
2023-10-28T10:15:00,axn,34.47
2023-10-28T10:16:00,axn,34.14
2023-10-28T10:17:00,axn,35.08
2023-10-28T10:18:00,axn,41.11
2023-10-28T10:19:00,axn,41.27
2023-10-28T10:20:00,axn,41.46
2023-10-28T10:21:00,axn,35.70
2023-10-28T10:22:00,axn,35.65
2023-10-28T10:23:00,axn,35.71
2023-10-28T10:24:00,axn,35.83
2023-10-28T10:25:00,axn,35.76
2023-10-28T10:26:00,axn,35.29
2023-10-28T10:27:00,axn,35.29
2023-10-28T10:28:00,axn,35.09
2023-10-28T10:29:00,axn,35.24
2023-10-28T10:30:00,axn,35.40
2023-10-28T10:31:00,axn,35.40
2023-10-28T10:32:00,axn,35.97
2023-10-28T10:33:00,axn,35.80
2023-10-28T10:34:00,axn,35.46
2023-10-28T10:35:00,axn,36.14
2023-10-28T10:36:00,axn,38.35
2023-10-28T10:37:00,axn,35.71
2023-10-28T10:38:00,axn,35.77
2023-10-28T10:39:00,axn,35.73
2023-10-28T10:40:00,axn,35.56
2023-10-28T10:41:00,axn,35.58
2023-10-28T10:42:00,axn,35.69
2023-10-28T10:43:00,axn,35.65
2023-10-28T10:44:00,axn,35.54
2023-10-28T10:45:00,axn,35.58
2023-10-28T10:46:00,axn,35.46
2023-10-28T10:47:00,axn,35.24
2023-10-28T10:48:00,axn,35.68
2023-10-28T10:49:00,axn,35.42
2023-10-28T10:50:00,axn,35.40
2023-10-28T10:51:00,axn,35.27
2023-10-28T10:52:00,axn,35.20
2023-10-28T10:53:00,axn,35.69
2023-10-28T10:54:00,axn,36.20
2023-10-28T10:55:00,axn,35.74
2023-10-28T10:56:00,axn,35.87
2023-10-28T10:57:00,axn,41.01
2023-10-28T10:58:00,axn,36.12
2023-10-28T10:59:00,axn,36.08
2023-10-28T11:00:00,axn,36.26
2023-10-28T11:01:00,axn,36.23
2023-10-28T11:02:00,axn,36.27
2023-10-28T11:03:00,axn,36.15
2023-10-28T11:04:00,axn,36.11
2023-10-28T11:05:00,axn,36.23
2023-10-28T11:06:00,axn,36.80
2023-10-28T11:07:00,axn,36.97
2023-10-28T11:08:00,axn,37.03
2023-10-28T11:09:00,axn,36.75
2023-10-28T11:10:00,axn,36.47
2023-10-28T11:11:00,axn,36.34
2023-10-28T11:12:00,axn,36.22
2023-10-28T11:13:00,axn,36.44
2023-10-28T11:14:00,axn,35.70
2023-10-28T11:15:00,axn,35.30
2023-10-28T11:16:00,axn,36.06
2023-10-28T11:17:00,axn,36.18
2023-10-28T11:18:00,axn,36.55
2023-10-28T11:19:00,axn,36.56
2023-10-28T11:20:00,axn,36.62
2023-10-28T11:21:00,axn,36.41
2023-10-28T11:22:00,axn,36.23
2023-10-28T11:23:00,axn,36.80
2023-10-28T11:24:00,axn,36.63
2023-10-28T11:25:00,axn,36.95
2023-10-28T11:26:00,axn,36.70
2023-10-28T11:27:00,axn,46.97
2023-10-28T11:28:00,axn,36.50
2023-10-28T11:29:00,axn,36.66
2023-10-28T11:30:00,axn,38.95
2023-10-28T11:31:00,axn,38.89
2023-10-28T11:32:00,axn,38.89
2023-10-28T11:33:00,axn,38.59
2023-10-28T11:34:00,axn,36.77
2023-10-28T11:35:00,axn,36.48
2023-10-28T11:36:00,axn,36.99
2023-10-28T11:37:00,axn,36.66
2023-10-28T11:38:00,axn,36.73
2023-10-28T11:39:00,axn,36.45
2023-10-28T11:40:00,axn,36.31
2023-10-28T11:41:00,axn,36.78
2023-10-28T11:42:00,axn,36.35
2023-10-28T11:43:00,axn,36.28
2023-10-28T11:44:00,axn,36.80
2023-10-28T11:45:00,axn,36.85
2023-10-28T11:46:00,axn,37.12
2023-10-28T11:47:00,axn,36.89
2023-10-28T11:48:00,axn,37.09
2023-10-28T11:49:00,axn,37.02
2023-10-28T11:50:00,axn,36.95
2023-10-28T11:51:00,axn,39.28
2023-10-28T11:52:00,axn,39.42
2023-10-28T11:53:00,axn,39.45
2023-10-28T11:54:00,axn,37.03
2023-10-28T11:55:00,axn,37.02
2023-10-28T11:56:00,axn,37.16
2023-10-28T11:57:00,axn,37.16
2023-10-28T11:58:00,axn,36.84
2023-10-28T11:59:00,axn,36.79
2023-10-28T12:00:00,axn,36.74
2023-10-28T12:01:00,axn,36.69
2023-10-28T12:02:00,axn,36.33
2023-10-28T12:03:00,axn,36.14
2023-10-28T12:04:00,axn,36.69
2023-10-28T12:05:00,axn,36.44
2023-10-28T12:06:00,axn,51.19
2023-10-28T12:07:00,axn,50.66
2023-10-28T12:08:00,axn,50.73
2023-10-28T12:09:00,axn,51.20
2023-10-28T12:10:00,axn,50.94
2023-10-28T12:11:00,axn,50.64
2023-10-28T12:12:00,axn,36.52
2023-10-28T12:13:00,axn,37.19
2023-10-28T12:14:00,axn,36.68
2023-10-28T12:15:00,axn,36.93
2023-10-28T12:16:00,axn,36.44
2023-10-28T12:17:00,axn,36.27
2023-10-28T12:18:00,axn,37.27
2023-10-28T12:19:00,axn,36.78
2023-10-28T12:20:00,axn,37.46
2023-10-28T12:21:00,axn,36.59
2023-10-28T12:22:00,axn,36.71
2023-10-28T12:23:00,axn,36.59
2023-10-28T12:24:00,axn,36.68
2023-10-28T12:25:00,axn,36.77
2023-10-28T12:26:00,axn,36.79
2023-10-28T12:27:00,axn,36.63
2023-10-28T12:28:00,axn,36.77
2023-10-28T12:29:00,axn,37.16
2023-10-28T12:30:00,axn,36.91
2023-10-28T12:31:00,axn,37.07
2023-10-28T12:32:00,axn,36.83
2023-10-28T12:33:00,axn,36.77
2023-10-28T12:34:00,axn,37.01
2023-10-28T12:35:00,axn,36.94
2023-10-28T12:36:00,axn,36.95
2023-10-28T12:37:00,axn,37.61
2023-10-28T12:38:00,axn,37.55
2023-10-28T12:39:00,axn,37.51
2023-10-28T12:40:00,axn,37.74
2023-10-28T12:41:00,axn,37.36
2023-10-28T12:42:00,axn,37.69
2023-10-28T12:43:00,axn,37.59
2023-10-28T12:44:00,axn,37.77
2023-10-28T12:45:00,axn,37.89
2023-10-28T12:46:00,axn,40.96
2023-10-28T12:47:00,axn,37.80
2023-10-28T12:48:00,axn,37.71
2023-10-28T12:49:00,axn,37.79
2023-10-28T12:50:00,axn,37.65
2023-10-28T12:51:00,axn,37.77
2023-10-28T12:52:00,axn,37.56
2023-10-28T12:53:00,axn,37.91
2023-10-28T12:54:00,axn,38.02
2023-10-28T12:55:00,axn,38.51
2023-10-28T12:56:00,axn,38.27
2023-10-28T12:57:00,axn,38.68
2023-10-28T12:58:00,axn,38.19
2023-10-28T12:59:00,axn,38.49
2023-10-28T13:00:00,axn,38.30
2023-10-28T13:01:00,axn,38.21
2023-10-28T13:02:00,axn,38.55
2023-10-28T13:03:00,axn,38.82
2023-10-28T13:04:00,axn,38.55
2023-10-28T13:05:00,axn,38.47
2023-10-28T13:06:00,axn,38.84
2023-10-28T13:07:00,axn,38.79
2023-10-28T13:08:00,axn,39.41
2023-10-28T13:09:00,axn,38.79
2023-10-28T13:10:00,axn,38.83
2023-10-28T13:11:00,axn,39.37
2023-10-28T13:12:00,axn,39.07
2023-10-28T13:13:00,axn,38.89
2023-10-28T13:14:00,axn,39.14
2023-10-28T13:15:00,axn,38.36
2023-10-28T13:16:00,axn,38.38
2023-10-28T13:17:00,axn,38.59
2023-10-28T13:18:00,axn,38.83